Regional Weather Roundup
Issued by NWS

Home | Current Version | Previous Version | Text Only | Print | Product List | Glossary Off
Versions: 1 2 3 4 5 6 7 8 9 10 11 12 13 14 15 16 17 18 19 20 21 22 23 24 25 26 27 28 29 30 31 32 33 34 35 36 37 38 39 40 41 42 43 44 45 46 47 48 49 50

000
ASUS43 KFSD 210502
RWRSD

WEATHER ROUNDUP FOR SOUTH DAKOTA
NATIONAL WEATHER SERVICE SIOUX FALLS SD
1200 AM CDT MON APR 21 2014

NOTE: "FAIR" INDICATES FEW OR NO CLOUDS BELOW 12,000 FEET WITH NO
SIGNIFICANT WEATHER AND/OR OBSTRUCTIONS TO VISIBILITY.


SDZ001>005-009-010-012>017-210600-
NORTHWEST AND NORTH CENTRAL SOUTH DAKOTA

CITY           SKY/WX    TMP DP  RH WIND       PRES   REMARKS
FAITH            N/A     46  26  45 NW9       30.08R
MOBRIDGE       CLEAR     50  26  39 N10       30.00R
$$

SDZ012>016-024>037-041>051-057-063-072>074-210600-
SOUTHWEST AND SOUTH CENTRAL SOUTH DAKOTA

CITY           SKY/WX    TMP DP  RH WIND       PRES   REMARKS
RAPID CTY ARPT CLEAR     48  26  42 NW15      30.11R
PIERRE         CLEAR     56  30  37 N16       29.99R
CUSTER         CLEAR     48  21  34 N10G17    30.16R
ELLSWORTH AFB  CLEAR     48  25  40 NW12      30.12R
PHILIP         CLEAR     53  27  36 N13       30.06R
PINE RIDGE     CLEAR     51  29  42 VRB3      30.09R
WINNER         FAIR      62  35  36 N23G32    29.97R
$$

SDZ004>011-016>023-039-040-210600-
NORTHEAST SOUTH DAKOTA

CITY           SKY/WX    TMP DP  RH WIND       PRES   REMARKS
ABERDEEN       PTCLDY    57  32  38 N14       29.98R
WATERTOWN      MOCLDY    60  38  43 E7        29.91S
SISSETON         N/A     52  38  58 SW8       29.89F
$$

SDZ017-020-022-023-036>040-048>070-210600-
SOUTHEAST SOUTH DAKOTA

CITY           SKY/WX    TMP DP  RH WIND       PRES   REMARKS
SIOUX FALLS    PTCLDY    62  50  64 SW9       29.87F
HURON          CLOUDY    59  45  59 E8        29.88F
CHAMBERLAIN      N/A     62  45  53 N18G28    29.95R
MITCHELL       CLOUDY    70  43  37 NW17      29.89R
YANKTON        MOCLDY    64  54  68 SW12      29.89F
$$

ABBREVIATIONS USED IN REMARKS
   TC - TEMPERATURE IN CELSIUS
  WCI - WIND CHILL INDEX
   HX - HEAT INDEX
  VSB - VISIBILITY




USA.gov is the U.S. government's official web portal to all federal, state and local government web resources and services.